[Iaude] MPEC N150: TWO NEW TNOS
    mpec at cfa.harvard.edu 
    mpec at cfa.harvard.edu
       
    Sun Jul 14 16:21:48 EDT 2024
    
    
  
M.P.E.C. 2024-N150                                Issued 2024 July 14, 20:20 UT
     The Minor Planet Electronic Circulars contain information on unusual
         minor planets, routine data on comets and natural satellites,
         and occasional editorial announcements.  They are published
    on behalf of Division F of the International Astronomical Union by the
          Minor Planet Center, Smithsonian Astrophysical Observatory,
                          Cambridge, MA 02138, U.S.A.
			  
             Prepared using the Tamkin Foundation Computer Network
                              MPC at CFA.HARVARD.EDU
            URL https://www.minorplanetcenter.net/    ISSN 1523-6714
                                  TWO NEW TNOS                                  
Observations:
     K18F73X 1C2018 03 10.47865611 52 26.32 +03 52 45.5                WEN150T09
     K18F73X*4C2018 03 18.48012 11 51 53.35 +03 56 24.7          23.2 i1EN150T09
     K18F73X 4C2018 03 18.48350 11 51 53.34 +03 56 24.7          23.3 i1EN150T09
     K18F73X 4C2018 03 18.51105 11 51 53.23 +03 56 25.4          23.3 i1EN150T09
     K18F73X 4C2018 03 18.55199 11 51 53.06 +03 56 26.2          23.6 i1EN150T09
     K18F73X 4C2018 04 24.37585 11 49 32.83 +04 11 00.8          23.2 z1EN150T09
     K18F73X 4C2018 04 24.40415 11 49 32.74 +04 11 01.3          23.1 z1EN150T09
     K18F73X 4C2018 04 24.41756 11 49 32.70 +04 11 01.7          23.2 z1EN150T09
     K18F73X 4C2018 04 24.45059 11 49 32.60 +04 11 02.2          22.9 z1EN150T09
     K18F73X 4C2018 04 24.49874 11 49 32.43 +04 11 03.0          23.7 z1EN150T09
     K18F73X 4C2018 04 24.50141 11 49 32.45 +04 11 03.0          23.1 z1EN150T09
     K18F73X 1C2019 02 04.59083611 58 41.86 +03 12 51.5                WEN150T09
     K18F73X 1C2019 02 05.52770111 58 39.27 +03 13 11.4                WEN150T09
     K18F73X 1C2019 03 11.49178211 56 38.08 +03 27 31.5                WEN150T09
     K18F73Y 1C2016 03 17.42424811 25 17.70 +04 04 01.7                WEN150T09
     K18F73Y 1C2016 03 17.56682911 25 16.93 +04 04 06.6                WEN150T09
     K18F73Y 1C2018 03 10.45480611 40 35.66 +02 43 15.6                WEN150T09
     K18F73Y*4C2018 03 18.45971 11 39 53.98 +02 47 57.0          23.2 i1EN150T09
     K18F73Y 4C2018 03 18.48956 11 39 53.82 +02 47 58.2          23.0 i1EN150T09
     K18F73Y 4C2018 03 18.50304 11 39 53.75 +02 47 58.5          22.8 i1EN150T09
     K18F73Y 4C2018 03 18.56001 11 39 53.45 +02 48 00.4          22.6 i1EN150T09
     K18F73Y 1C2018 04 22.29897111 37 10.17 +03 06 12.7                WEN150T09
     K18F73Y 1C2018 04 22.40761711 37 09.74 +03 06 15.6                WEN150T09
     K18F73Y 4C2018 04 24.35200 11 37 02.43 +03 07 04.4          23.0 z1EN150T09
     K18F73Y 4C2018 04 24.39881 11 37 02.24 +03 07 05.4          22.9 z1EN150T09
     K18F73Y 4C2018 04 24.42918 11 37 02.13 +03 07 06.2          22.4 z1EN150T09
     K18F73Y 4C2018 04 24.44256 11 37 02.09 +03 07 06.2          22.7 z1EN150T09
     K18F73Y 4C2018 04 24.48536 11 37 01.93 +03 07 07.6          22.4 z1EN150T09
     K18F73Y 1C2019 02 05.45787811 50 23.90 +01 47 27.7                WEN150T09
     K18F73Y 1C2019 02 05.49810511 50 23.75 +01 47 28.8                WEN150T09
     K18F73Y 1C2019 03 08.39172311 48 04.73 +02 03 34.2                WEN150T09
     K18F73Y 1C2019 03 08.43392711 48 04.51 +02 03 35.7                WEN150T09
Observer details:
T09 Subaru Telescope, Maunakea.  Observers , H. Aihara, Y. AlSayyad, M. Ando,
    R. Armstrong, J. Bosch, E. Egami, H. Furusawa, J. Furusawa, S. Harasawa,
    Y. Harikane, B.-C. Hsieh, H. Ikeda, K. Ito, I. Iwata, T. Kodama, M. Koike,
    M. Kokubo, Y. Komiyama, X. Li, Y. Liang, Y.-T. Lin, R. H. Lupton, N. B.
    Lust, L. A. MacArthur, K. Mawatari, S. Mineo, H. Miyatake, S. Miyazaki, S.
    More, T. Morishima, H. Murayama, K. Nakajima, F. Nakata, A. J. Nishizawa,
    M. Oguri, N. Okabe, Y. Okura, Y. Ono, K. Osato, M. Ouchi, Y.-C. Pan, A. A.
    Plazas Malagon, P. A. Price, S. L. Reed, E. S. Rykoff, T. Shibuya, M.
    Simunovic, M. A. Strauss, K. Sugimori, Y. Suto, N. Suzuki, M. Takada, Y.
    Takagi, T. Takata, S. Takita, M. Tanaka, S. Tang, D. S. Taranu, T. Terai,
    Y. Toba, E. L. Turner, H. Uchiyama, B. Vijarnwannaluk, C. Z. Waters, Y.
    Yamada, N. Yamamoto, T. Yamashita.  Measurers S. Deen, A. Yamauchi.  8.3-m
    Subaru Telescope + CCD, 8.2-m f/2.0 reflector + CCD(HSC).
Orbital elements:
2018 FX73                                                                       
Epoch 2024 Oct. 17.0 TT = JDT 2460600.5                 Alexandersen            
M 163.79202              (2000.0)            P               Q                  
n   0.00339747     Peri.  262.00017     +0.94737838     -0.31626660             
a  43.8227212      Node   116.42562     +0.31114683     +0.87341903             
e   0.0582340      Incl.    3.16828     +0.07524530     +0.37028994             
P 290              H    6.94          G   0.15           U   8                  
Residuals in seconds of arc
K183A  T09  0.0   0.0     K184O  T09  0.1-  0.1+    K184O  T09  0.3+  0.0  
K183I  T09  0.1-  0.1+    K184O  T09  0.0   0.0     K1924  T09  0.0   0.0  
K183I  T09  0.0   0.0     K184O  T09  0.0   0.2+    K1925  T09  0.0   0.0  
K183I  T09  0.0   0.0     K184O  T09  0.1+  0.1+    K193B  T09  0.0   0.0  
K183I  T09  0.1+  0.3-    K184O  T09  0.1-  0.0     
2018 FY73                                                                       
Epoch 2024 Oct. 17.0 TT = JDT 2460600.5                 Alexandersen            
M  15.74084              (2000.0)            P               Q                  
n   0.00359034     Peri.  357.63075     -0.96224296     -0.27168613             
a  42.2388787      Node   166.56934     +0.25089092     -0.90892426             
e   0.1715762      Incl.    4.09522     +0.10555678     -0.31629629             
P 275              H    7.65          G   0.15           U   5                  
Residuals in seconds of arc
K163H  T09  0.1+  0.0     K183I  T09  0.0   0.1-    K184O  T09  0.0   0.3- 
K163H  T09  0.1-  0.0     K184M  T09  0.2+  0.2-    K184O  T09  0.0   0.1+ 
K183A  T09  0.0   0.1+    K184M  T09  0.1+  0.1-    K1925  T09  0.0   0.1- 
K183I  T09  0.0   0.1+    K184O  T09  0.0   0.1+    K1925  T09  0.0   0.0  
K183I  T09  0.0   0.2+    K184O  T09  0.2-  0.0     K1938  T09  0.0   0.0  
K183I  T09  0.0   0.0     K184O  T09  0.1-  0.1+    K1938  T09  0.0   0.0  
M. P. C. Staff               (C) Copyright 2024 MPC           M.P.E.C. 2024-N150
    
    
More information about the Iaude
mailing list